Theta_e
331 328 326 325 324 322 319 317 315 313 312 311 310 310 309 310 310 309 307 309 310 309 310 313 312 311 311 312 314 315 317 319 320 320 322 323 320 318 322 325 327 328 328
322 318 317 314 311 310 309 309 308 308 308 308 308 309 310 313 314 312 312 310 310 311 311 313 313 314 313 313 314 314 313 314 315 315 316 317 319 322 322 320 321 325 326
321 319 316 313 311 309 308 307 307 306 308 309 311 313 313 313 313 312 309 306 306 307 309 310 310 308 308 309 309 310 310 311 312 312 312 313 314 316 317 315 315 318 319
318 315 313 310 309 308 308 306 305 307 309 312 312 312 312 312 311 307 304 305 306 308 308 307 306 306 306 305 304 304 304 305 305 307 307 309 311 312 313 316 317 319 319
315 312 311 309 308 306 308 311 311 311 311 311 311 310 311 310 308 304 305 305 305 306 306 307 307 307 307 306 306 305 304 304 304 303 304 305 306 309 311 311 311 313 314
311 310 309 309 311 312 312 312 311 311 310 310 310 309 308 308 306 304 305 305 305 306 307 307 307 307 307 306 307 307 306 305 305 304 304 303 304 304 305 306 308 308 310
309 308 307 311 312 312 311 310 309 309 308 308 308 307 307 307 306 305 305 305 305 306 306 307 307 308 308 308 308 308 308 307 307 306 306 306 305 305 304 305 305 307 307
310 310 311 312 312 311 310 309 307 307 307 307 308 307 307 307 307 305 305 305 306 306 307 308 309 309 309 308 308 309 309 310 309 308 306 306 305 305 304 304 304 304 304
310 311 311 311 310 309 308 307 306 307 307 307 307 307 307 307 307 306 308 311 311 311 311 311 309 309 309 310 310 311 310 310 309 308 308 307 306 306 305 303 302 302 302
310 310 310 310 308 307 306 305 306 306 306 306 307 307 308 307 307 309 311 312 313 314 315 315 313 312 313 312 311 311 309 307 308 308 308 307 306 305 305 303 303 303 303
310 310 309 308 307 306 305 305 306 305 307 308 309 309 308 308 309 310 311 313 314 314 315 313 313 313 312 311 310 309 308 309 310 310 308 306 305 304 303 304 303 304 304
310 309 308 307 306 306 306 306 306 306 307 308 308 308 308 308 310 311 312 313 314 315 314 311 311 312 312 311 310 310 309 309 309 308 307 305 303 302 301 302 304 305 305
308 308 307 307 306 306 306 306 306 306 306 306 307 310 310 310 312 312 313 315 315 315 312 313 313 312 312 312 312 310 310 310 310 309 308 307 305 303 304 304 305 306 306
307 307 306 306 305 305 306 306 306 305 305 305 310 311 312 312 313 312 313 314 313 312 312 313 314 314 314 314 312 312 312 311 310 310 310 309 307 306 305 305 306 306 306
307 307 306 306 305 305 305 306 305 304 305 305 307 309 311 312 312 312 312 312 312 311 311 311 312 312 313 314 314 313 313 311 311 311 310 310 308 308 307 306 306 307 307
307 306 305 305 304 304 306 306 306 305 305 305 307 309 309 311 311 311 311 311 310 311 311 311 310 309 308 309 308 313 313 313 312 311 311 311 310 310 309 308 307 307 307
305 304 304 303 303 305 305 305 305 305 304 303 306 307 308 310 309 311 311 310 310 310 310 306 304 304 303 303 304 306 310 313 313 314 312 312 312 312 309 309 309 308 309
303 304 304 304 303 304 304 304 304 304 305 303 305 309 309 309 310 310 311 310 310 309 307 304 302 302 301 301 302 303 307 312 313 314 314 315 315 314 313 311 310 310 311
303 303 303 304 303 303 303 303 303 305 306 306 307 308 309 309 310 309 308 309 308 305 304 301 300 299 298 298 300 303 304 308 312 313 313 313 314 315 315 315 314 313 311
302 303 303 303 303 302 302 302 303 305 305 306 307 308 308 308 309 307 304 303 302 300 299 298 297 296 295 294 296 300 303 307 309 311 313 312 313 314 315 315 314 313 313
301 301 301 302 300 300 300 301 304 304 304 305 305 305 306 305 303 303 300 300 299 298 297 296 295 293 292 293 294 295 297 303 307 308 309 310 310 312 314 315 314 314 314
300 300 300 299 298 299 298 301 303 304 303 302 301 301 302 301 299 297 298 298 297 297 296 295 291 291 291 291 292 293 295 297 302 305 305 306 307 311 311 313 315 314 314
299 299 298 298 298 299 299 301 302 303 302 301 300 299 298 298 297 297 297 296 296 295 295 294 290 290 290 290 291 292 293 296 298 300 301 301 304 307 309 309 311 313 315
298 297 297 299 299 298 300 299 298 298 297 297 296 297 296 296 295 295 295 295 295 294 294 293 290 289 289 290 290 290 292 295 296 297 298 298 301 302 305 307 309 309 311
297 296 298 299 299 299 297 297 296 295 295 294 294 294 294 294 294 293 293 294 293 293 292 292 290 288 289 289 289 290 290 291 293 295 296 296 299 298 299 301 303 305 308
296 296 298 298 298 297 296 296 296 295 294 294 293 293 293 293 292 292 292 292 292 291 291 290 290 288 288 289 289 289 290 290 291 292 293 295 297 298 297 298 299 301 301
Wind_Speed
16 15 12 8 7 6 3 1 2 5 8 10 12 14 15 15 19 20 19 16 20 24 22 24 26 26 26 27 28 27 26 24 31 37 28 29 32 32 35 31 20 20 18
15 14 10 7 5 3 3 4 5 8 9 10 11 12 13 12 14 17 18 19 19 19 20 20 21 23 25 27 25 25 27 27 27 36 31 28 25 25 27 27 26 28 30
14 11 8 5 5 5 7 9 10 11 12 12 12 13 12 11 13 17 21 21 19 17 18 19 24 26 26 30 30 30 32 33 33 37 42 37 32 27 32 36 34 29 28
10 9 7 8 9 9 10 10 10 9 9 9 11 10 11 12 15 20 20 21 17 14 16 20 21 22 25 24 26 28 29 30 30 30 33 33 28 27 27 19 20 17 23
9 9 11 12 11 10 11 10 11 11 12 11 10 12 10 12 18 20 19 21 20 21 21 22 23 24 24 27 30 27 28 28 27 29 29 32 29 29 29 31 30 26 17
8 5 7 7 7 9 8 9 11 12 11 10 9 9 11 14 17 17 20 23 23 19 22 22 21 22 23 27 28 30 30 28 31 31 30 29 30 29 29 30 33 35 34
8 8 9 8 8 9 9 10 11 12 14 13 12 12 14 17 20 21 19 21 22 23 24 26 29 24 23 28 30 33 35 37 36 32 33 33 32 25 25 27 27 27 27
8 8 9 8 8 7 8 8 9 10 12 12 11 13 13 14 20 21 21 23 21 22 22 23 17 25 27 29 32 38 39 38 38 35 35 35 33 32 23 25 26 30 32
9 8 8 8 7 8 8 10 11 13 10 8 10 10 12 14 18 24 25 26 24 23 21 18 17 24 28 32 32 32 33 33 32 27 27 26 26 27 24 21 20 21 24
8 8 8 7 7 7 8 8 10 7 9 10 15 17 15 15 19 23 25 23 22 23 22 22 22 22 24 23 27 32 38 38 35 28 25 21 21 20 19 16 15 18 19
7 7 7 7 8 11 7 8 9 9 14 15 16 12 11 15 19 21 21 20 22 21 20 22 25 26 26 27 28 32 34 38 36 28 22 18 16 12 10 16 14 17 18
6 6 7 8 8 6 9 9 9 13 17 11 6 6 10 13 16 19 16 15 19 18 22 27 28 26 24 26 29 31 35 40 38 34 32 26 20 12 8 7 5 11 16
4 6 7 8 7 6 7 8 10 12 9 10 10 8 9 12 16 20 20 15 20 23 24 25 26 27 26 28 31 31 34 36 37 39 34 30 25 15 6 3 9 10 10
5 7 7 7 6 4 5 4 7 8 10 10 11 11 13 15 17 20 22 22 21 23 26 27 29 29 30 31 32 33 33 35 32 29 34 30 25 9 5 8 10 13 13
5 6 4 3 5 5 5 5 7 12 11 10 11 11 12 14 15 16 19 20 21 20 21 24 30 32 35 35 33 37 34 35 33 33 32 25 24 23 15 12 12 10 11
6 1 5 6 5 4 6 7 8 12 10 9 10 9 10 11 12 13 14 15 19 20 21 27 31 33 35 36 37 37 34 37 37 32 32 35 19 20 20 18 13 10 9
5 2 4 3 5 5 4 3 8 9 8 12 11 10 11 10 12 11 11 14 17 21 24 30 34 35 35 34 34 34 35 34 35 35 37 28 30 18 20 19 16 15 12
2 0 2 9 6 3 3 3 6 7 3 6 9 8 8 7 9 11 13 14 19 24 26 28 29 32 32 31 32 29 29 28 32 35 39 39 39 26 20 13 11 14 13
3 3 6 6 6 7 2 6 8 4 2 4 6 6 6 7 8 10 15 18 20 24 27 30 28 31 31 31 31 28 28 26 25 30 34 41 44 32 29 22 21 14 9
2 2 4 6 2 1 4 7 3 3 4 5 6 8 8 7 9 15 21 24 25 28 28 25 26 28 29 31 31 31 31 29 25 26 31 34 38 37 26 24 25 17 16
1 0 6 3 3 3 4 1 2 4 7 8 10 12 12 14 17 17 21 26 25 21 24 24 24 27 29 31 31 31 33 32 27 25 29 28 33 34 35 26 23 24 19
3 2 4 3 3 3 1 1 3 3 6 8 12 16 14 17 21 24 21 17 18 19 21 23 26 28 31 33 33 32 33 33 29 27 28 27 27 26 30 30 22 23 23
5 4 4 3 3 3 1 1 2 3 5 7 12 18 18 14 14 15 15 16 17 18 20 22 26 27 30 31 33 33 32 32 30 28 27 32 25 21 23 24 26 27 23
7 7 5 4 5 4 5 8 11 12 13 13 16 13 11 12 13 14 15 16 16 17 18 22 24 27 29 31 32 32 29 25 26 25 25 31 23 27 20 17 17 18 25
6 6 5 6 8 11 14 14 14 15 16 17 12 11 11 11 13 14 14 15 15 16 16 20 23 27 28 29 30 30 30 27 23 23 26 28 24 30 24 27 23 17 14
9 7 7 8 10 12 15 13 10 9 10 9 9 10 11 11 12 13 14 14 14 14 15 16 19 24 26 27 28 29 29 29 27 25 25 25 24 28 30 27 23 26 24
Wind_Direction
119 121 118 115 119 119 132 167 298 289 287 292 299 300 308 307 303 310 310 309 297 301 301 298 299 305 306 296 293 292 292 302 303 298 309 310 305 297 288 289 278 249 253
106 101 96 83 70 48 349 321 306 307 313 326 328 331 335 325 332 311 317 318 318 321 324 325 317 306 308 301 300 297 294 292 301 303 308 305 304 309 309 309 302 274 247
90 94 93 66 27 5 347 336 337 337 340 347 348 357 350 353 301 320 329 331 330 338 338 327 313 315 310 303 303 302 298 295 288 289 293 297 297 309 304 294 298 293 284
100 79 52 20 357 4 346 347 340 340 344 345 349 354 358 326 324 338 347 350 352 345 338 337 339 330 329 339 333 318 313 310 306 304 301 301 305 293 301 321 298 295 292
67 40 27 16 0 2 6 5 11 4 2 13 4 11 1 321 342 351 356 358 3 2 353 341 337 335 342 334 335 334 328 324 316 311 304 302 299 292 287 293 298 299 288
84 56 46 40 13 27 22 360 3 5 7 21 7 355 335 338 345 354 356 354 355 346 339 339 342 338 327 324 334 332 330 325 322 314 314 309 306 299 299 302 299 299 297
44 27 28 39 32 28 11 348 10 7 16 21 2 4 350 350 356 351 343 343 344 347 344 344 342 347 342 335 323 315 313 311 309 303 299 301 302 317 302 296 299 298 298
56 49 43 47 37 23 9 357 5 26 15 24 355 354 356 353 340 340 351 353 350 337 337 329 348 346 339 321 320 314 314 316 317 312 299 292 283 289 298 290 292 297 298
54 48 44 41 26 12 2 7 21 38 353 19 359 351 356 5 340 346 354 354 356 352 350 357 353 338 327 325 330 333 332 333 327 320 311 305 292 275 269 283 284 290 298
56 47 38 28 20 17 1 10 39 21 344 22 31 29 19 350 349 358 355 0 6 13 20 21 8 352 352 354 349 349 346 342 339 336 333 322 318 303 266 257 293 286 295
60 47 29 27 30 350 30 24 23 8 41 20 25 15 355 353 352 5 357 3 11 18 23 17 9 12 14 12 16 11 12 11 7 360 356 351 346 334 303 257 272 286 292
58 41 30 25 34 12 27 30 11 44 36 25 359 23 24 351 2 11 6 17 16 26 29 22 17 17 22 24 22 21 28 28 18 17 14 6 360 356 334 207 279 283 286
37 39 33 1 47 17 26 26 12 14 24 9 13 42 35 24 25 25 37 42 42 42 34 27 20 26 29 28 24 19 25 26 17 20 21 17 14 17 81 86 340 295 295
47 42 31 356 31 2 68 15 7 355 19 13 26 40 40 32 32 36 42 47 49 45 39 36 36 35 33 31 28 27 28 24 17 6 14 20 21 32 21 348 344 338 335
39 41 351 359 353 21 25 29 356 356 358 14 23 24 35 34 31 24 17 32 26 30 30 31 33 32 31 31 26 24 19 17 20 23 13 5 19 24 5 330 343 1 1
84 219 352 350 22 41 49 335 338 345 344 9 16 19 24 25 20 8 2 13 23 22 24 28 24 22 21 21 18 27 27 22 22 13 22 18 14 6 10 22 23 6 28
153 163 119 342 50 30 5 34 348 328 3 358 11 14 19 32 16 3 4 9 20 21 21 26 12 12 8 6 4 12 14 26 23 32 33 25 18 16 33 30 22 33 21
122 188 54 54 16 19 30 333 282 310 337 331 341 356 18 24 10 7 6 19 23 25 25 29 8 5 7 7 4 8 10 20 25 27 26 30 22 24 15 26 34 24 27
164 230 98 56 345 57 36 288 301 333 316 341 12 8 8 5 353 16 20 18 20 24 25 25 7 4 5 6 7 12 10 19 24 28 30 26 24 16 26 29 30 52 43
210 119 129 94 7 129 259 277 341 6 31 45 42 42 35 32 27 34 28 25 28 27 21 16 8 2 8 10 14 18 17 19 26 31 32 26 23 17 20 28 32 38 34
189 313 112 94 215 109 264 327 61 71 70 64 52 42 30 33 32 31 24 26 30 17 17 7 12 9 14 15 16 21 21 22 23 27 28 26 20 18 18 25 27 30 35
152 139 134 115 94 152 285 104 114 96 78 57 60 45 35 40 40 40 42 34 18 22 16 9 18 19 22 20 18 21 21 21 20 24 22 22 14 21 22 23 25 28 30
163 154 160 146 104 90 108 87 90 73 62 66 66 50 34 35 43 43 37 29 26 25 19 11 19 24 27 26 25 23 19 17 19 23 21 17 10 18 21 14 29 23 19
183 167 163 151 146 131 108 88 82 79 79 75 72 68 55 35 45 42 47 31 37 21 30 7 19 22 25 26 25 25 22 17 18 22 27 14 22 15 13 11 21 28 29
161 154 146 127 128 122 99 84 82 73 64 59 54 57 51 50 44 45 49 47 30 30 24 18 6 23 25 25 24 24 21 18 18 27 33 22 30 21 24 19 15 9 6
167 157 139 134 133 129 113 99 77 80 80 68 59 58 59 53 52 47 42 45 39 28 18 29 8 20 21 24 22 22 22 20 17 24 32 32 33 30 18 23 27 20 12